Theta_e
314 314 315 316 316 316 316 316 315 313 312 311 312 313 314 317 319 320 320 320 320 320 319 317 317 316 315 316 315 315 314 316 324 331 331 329 324 326 325 322 321 319 320 330 345 349 350 353 352 349 345 344 345 345 343 342 345 348 353 347 338 342 344 350 358 356 357 363 363 362 361 364 365 362 361 363 363 363 362 361 362 361 360 359 360 361 360 360
315 315 316 317 317 317 317 317 316 315 313 312 312 312 314 316 318 319 319 319 320 320 318 318 317 316 316 315 316 316 316 322 329 331 329 329 327 325 323 323 322 318 322 338 347 347 350 349 347 346 344 344 344 344 344 343 343 347 352 345 342 349 349 350 357 356 359 361 362 362 360 362 363 361 360 364 365 363 364 364 362 361 360 358 359 361 360 359
315 316 317 317 318 318 317 318 317 316 314 313 312 312 313 315 317 319 319 319 321 321 319 318 317 316 315 316 317 315 319 328 333 331 329 327 326 325 323 320 321 317 320 338 345 346 349 345 345 344 342 344 343 343 347 348 342 345 349 345 346 349 348 349 352 354 359 360 362 361 360 360 359 359 359 362 364 362 366 365 363 363 361 357 357 358 356 357
315 316 317 317 318 317 318 318 317 318 316 314 313 312 313 315 317 319 319 319 321 321 320 319 317 316 314 317 316 316 324 333 330 328 330 328 325 324 322 319 319 316 319 334 341 347 347 343 343 342 341 344 342 340 345 345 341 343 346 345 346 345 347 350 349 351 355 358 361 360 360 360 357 358 359 362 363 361 363 363 362 363 361 357 356 355 354 356
315 316 317 317 317 317 318 317 317 317 317 316 314 313 313 315 317 319 320 320 321 321 321 319 317 316 314 315 314 318 327 326 323 332 327 327 325 323 322 319 318 315 321 333 340 346 344 342 342 339 341 342 339 340 341 339 340 342 343 344 344 345 346 348 348 350 353 354 354 356 360 360 358 360 358 361 361 360 360 360 359 360 361 359 356 356 355 358
315 316 316 317 317 317 317 317 317 317 317 317 315 313 313 316 318 320 320 320 321 321 321 318 316 316 315 315 314 322 329 321 327 333 322 325 324 323 321 319 317 317 327 336 341 345 344 341 339 339 340 340 337 337 340 339 341 344 342 343 343 346 347 347 348 349 351 352 352 354 359 358 359 361 359 360 361 357 355 357 357 357 360 360 358 357 356 358
316 316 317 317 317 317 317 316 317 317 317 317 316 314 313 317 319 321 321 320 321 321 321 318 315 316 313 315 320 327 329 323 330 331 323 323 322 322 320 318 315 320 333 337 340 345 341 339 339 340 339 338 335 336 341 339 339 344 344 344 344 346 345 347 349 349 353 353 354 355 354 357 359 359 359 360 360 356 354 355 355 354 358 360 358 359 357 359
317 317 317 317 316 317 317 316 317 317 317 316 316 314 314 318 321 321 321 320 322 322 320 316 315 316 312 317 326 330 326 322 329 331 324 322 322 321 321 320 319 325 337 337 341 345 340 341 339 338 337 334 335 337 341 339 340 345 345 343 344 344 345 348 350 351 355 353 356 360 354 353 355 357 359 359 357 354 354 356 355 355 356 357 357 358 358 358
317 317 317 316 316 316 316 317 317 317 316 317 316 315 316 319 321 321 321 321 322 321 319 315 315 314 313 320 325 325 326 326 330 328 321 322 324 320 321 327 327 331 336 337 342 343 340 340 337 336 336 333 334 337 340 340 340 343 346 344 344 344 345 350 351 350 354 353 357 362 359 354 352 355 359 357 355 353 353 355 356 357 355 356 358 358 358 358
317 317 316 315 316 316 316 316 316 317 316 316 316 315 316 320 322 321 321 322 322 320 317 315 315 314 317 324 325 323 328 332 333 330 325 324 324 322 324 330 331 331 334 338 342 342 340 338 337 333 333 333 334 335 338 339 339 342 345 343 343 345 343 345 348 349 352 354 354 358 359 355 352 358 361 356 352 352 353 354 356 358 357 357 358 359 359 359
316 316 316 316 316 316 316 316 316 317 316 316 316 315 317 321 321 320 321 322 320 317 314 314 314 315 322 329 327 327 328 330 334 334 333 329 326 326 327 331 331 331 334 339 342 341 339 339 337 333 332 333 332 335 339 337 341 343 343 344 344 344 344 342 345 350 353 355 355 359 362 358 353 354 356 354 352 352 352 353 355 358 358 358 358 358 359 360
317 316 317 316 316 316 316 316 316 317 316 317 315 315 318 320 320 320 321 321 320 316 313 313 313 318 327 329 327 331 329 328 330 333 337 333 330 328 327 330 332 331 335 338 340 339 338 339 337 334 333 331 332 338 340 335 341 343 341 345 345 345 347 344 345 350 352 354 356 361 359 357 358 352 351 351 352 354 352 354 356 357 357 357 359 359 358 359
317 317 317 316 316 316 315 316 316 317 317 316 315 316 318 318 317 319 319 318 317 314 313 314 314 322 331 329 326 328 326 327 329 333 336 333 331 329 326 332 333 331 335 338 338 337 337 339 337 335 333 332 332 338 340 336 340 344 342 345 344 344 346 345 346 349 353 354 355 357 345 346 357 352 351 351 350 354 353 355 355 356 358 357 359 358 358 358
317 316 316 316 316 316 315 315 315 316 317 316 316 316 318 317 316 317 317 316 315 315 315 314 317 327 332 329 327 325 325 326 327 332 334 331 331 329 328 332 335 334 335 336 336 337 335 337 336 334 333 332 331 334 338 336 338 341 341 343 339 331 335 344 346 346 354 355 353 353 339 341 355 352 351 352 349 354 354 355 353 355 357 357 359 358 357 359
317 317 316 316 316 315 315 315 315 316 317 317 315 317 318 316 315 315 315 315 315 315 315 316 320 329 332 329 329 325 324 324 324 329 331 331 331 329 329 330 335 336 335 336 336 336 335 335 334 334 333 332 332 333 334 339 356 362 338 333 337 327 330 344 345 344 352 353 351 351 340 343 355 353 351 351 349 353 354 355 354 354 357 357 359 358 357 359
317 316 316 315 315 315 315 314 315 315 317 316 315 317 317 315 315 314 315 316 317 315 319 325 327 329 329 327 327 324 322 322 322 324 330 333 332 330 329 330 336 336 335 337 335 335 333 333 333 332 333 333 332 332 332 335 356 374 342 326 333 326 327 340 344 343 348 352 350 348 343 346 353 352 351 351 350 351 352 355 353 353 357 358 358 359 357 358
316 316 315 315 314 314 314 314 315 315 317 316 316 318 317 315 315 315 315 315 317 317 322 332 334 331 329 328 327 325 323 321 320 324 330 334 332 332 331 333 335 334 334 335 333 332 331 331 332 332 332 332 332 331 334 327 329 341 338 330 333 327 324 332 343 344 344 349 352 351 350 349 351 351 352 352 351 350 353 354 353 352 355 357 358 357 357 357
314 314 314 314 313 314 314 314 314 315 316 316 317 319 319 317 315 319 321 319 323 324 325 330 330 329 331 330 328 326 324 322 320 323 332 335 332 333 333 334 332 331 333 332 330 331 330 331 331 332 332 331 334 329 327 326 325 324 328 327 326 323 323 329 338 344 342 345 352 353 350 351 352 352 351 351 349 350 352 352 351 353 353 355 357 357 358 358
312 313 313 313 312 313 313 314 314 315 315 316 319 322 326 325 321 325 329 328 330 333 331 330 328 326 327 327 328 325 324 322 322 326 332 335 332 332 334 331 330 329 330 329 330 330 330 333 330 328 329 328 335 331 328 333 333 330 329 324 320 318 320 330 339 340 339 339 348 354 347 350 354 353 352 351 350 349 352 353 351 351 352 353 355 355 358 358
310 310 311 311 311 312 313 313 314 315 315 317 321 324 331 336 332 333 334 332 332 331 329 328 327 326 326 326 326 324 324 323 324 330 333 333 330 330 329 327 328 327 329 329 329 330 331 330 328 326 328 331 333 334 336 336 338 337 330 326 323 318 318 331 339 337 337 333 338 351 349 352 355 353 354 353 351 351 350 351 351 350 352 352 353 354 356 358
308 308 309 309 310 311 313 314 314 315 316 318 322 327 332 333 332 331 331 330 332 331 329 328 326 327 327 326 326 325 325 324 325 330 331 331 328 327 326 326 327 326 327 329 328 331 331 327 328 329 332 332 331 333 337 336 336 335 331 324 321 320 322 329 337 335 336 334 333 346 349 351 355 353 355 354 353 353 348 350 350 349 352 351 353 357 357 359
307 308 308 308 310 311 312 314 314 315 318 321 325 329 330 329 329 328 327 327 328 328 328 328 327 325 326 328 327 325 325 324 325 328 330 328 326 326 326 325 325 325 326 328 328 329 327 325 329 331 331 330 332 334 335 336 337 333 331 325 319 322 324 326 334 334 336 335 335 343 342 345 356 354 354 354 354 353 349 349 351 349 354 354 353 356 358 361
307 307 307 308 309 310 312 314 314 316 320 326 330 330 329 329 328 327 327 327 328 327 326 327 326 324 324 327 328 327 325 324 324 327 330 328 326 325 325 323 322 325 325 326 327 322 319 325 330 331 329 330 331 332 333 334 333 333 329 321 317 323 321 318 326 334 337 333 334 341 336 339 355 354 354 354 353 354 351 349 350 352 355 356 357 355 356 360
308 307 307 308 308 309 312 312 316 322 326 329 331 331 331 330 328 327 328 328 328 328 326 327 327 325 324 326 328 328 325 325 325 327 329 327 326 324 324 324 323 324 326 326 327 324 322 329 331 330 328 330 330 331 334 330 327 331 330 323 320 325 323 320 326 332 332 331 339 338 325 330 348 351 354 355 353 354 353 349 351 354 353 357 365 361 354 357
309 308 307 308 308 309 311 315 322 323 324 328 329 331 330 328 330 328 329 330 328 329 328 327 327 326 325 324 326 328 327 325 324 326 330 327 326 325 324 325 324 323 324 325 326 326 326 329 330 329 328 328 328 329 331 328 322 323 329 330 326 329 328 327 329 326 318 322 338 330 317 324 345 347 350 353 354 355 354 352 352 357 356 357 365 361 354 356
309 308 308 308 308 309 312 318 323 319 321 328 331 330 328 329 332 330 332 329 324 327 327 326 327 325 324 324 325 327 326 325 326 326 330 329 327 327 324 325 325 324 324 326 326 326 326 328 329 329 329 329 329 328 331 330 321 316 325 332 331 332 329 327 326 320 311 315 335 334 322 324 337 341 351 352 354 357 357 355 353 358 361 358 360 360 353 355
308 309 309 308 310 311 315 320 319 318 323 330 332 331 329 330 332 330 333 323 318 327 329 323 325 324 324 324 325 325 323 324 326 326 329 329 328 327 325 324 326 324 326 324 319 321 328 327 327 328 329 330 328 326 331 331 321 317 327 331 329 331 327 327 326 318 316 320 333 337 329 330 334 340 351 354 353 359 359 358 356 357 360 358 356 357 353 351
308 309 308 309 310 311 314 316 319 322 324 328 331 329 328 330 331 331 330 320 321 328 329 325 325 324 324 325 325 325 324 325 324 324 328 330 327 327 324 326 326 325 327 323 314 319 328 326 326 329 327 327 327 328 331 331 325 324 330 331 329 331 328 329 325 318 320 319 318 324 329 338 341 342 347 355 352 354 359 359 357 355 358 358 355 354 352 350
308 309 309 310 309 312 318 318 321 325 324 329 330 328 329 330 330 333 327 320 325 328 328 327 326 325 326 325 325 325 325 326 325 325 329 328 328 327 326 326 326 325 326 324 319 323 327 327 327 327 326 327 328 330 330 329 328 328 330 330 330 331 329 329 326 319 319 316 311 317 323 328 330 332 342 352 346 349 357 356 357 357 357 357 353 352 352 349
308 308 310 311 311 316 322 321 323 325 325 328 329 328 331 329 330 329 320 320 325 327 326 327 326 327 327 326 325 326 324 325 326 325 328 329 328 328 326 327 325 326 327 326 324 325 328 328 329 328 327 328 329 330 330 329 331 330 329 329 327 328 329 327 326 319 315 315 314 317 319 319 321 327 338 344 343 347 352 355 356 358 357 356 353 351 350 350
309 309 310 312 312 315 318 321 322 325 328 331 331 330 330 330 330 324 320 325 324 326 325 326 327 326 327 326 326 325 323 325 326 327 328 328 328 327 326 327 326 325 324 323 323 325 326 326 327 328 328 328 329 329 330 329 328 328 329 326 319 319 321 318 319 320 317 316 316 318 322 318 317 325 335 340 344 343 349 354 355 356 357 356 353 351 350 353
309 309 310 311 311 313 315 319 318 322 327 332 331 330 329 328 325 318 323 325 319 323 327 326 328 326 327 327 326 324 324 324 325 328 328 327 327 327 325 326 326 319 313 316 318 321 324 326 326 327 327 328 328 324 326 328 328 329 325 319 312 311 313 313 313 319 320 317 318 320 321 317 317 327 338 343 343 344 349 352 352 354 356 356 353 351 351 353
310 310 310 311 311 313 315 317 318 321 328 331 330 331 329 324 321 318 320 320 317 324 328 327 327 327 326 325 325 324 323 324 325 326 328 328 327 327 325 327 327 320 314 315 315 313 316 323 325 325 325 326 326 322 318 321 324 325 319 314 311 310 312 313 314 316 317 314 316 321 321 317 318 330 341 342 340 344 348 348 349 353 355 356 354 350 350 352
310 310 311 313 315 316 318 319 322 326 330 331 330 330 327 321 324 323 320 321 324 328 328 326 328 327 326 325 324 325 323 322 326 326 326 326 325 325 324 325 326 325 321 317 313 312 309 314 321 324 322 324 328 323 321 323 324 325 325 321 313 310 311 312 313 313 313 312 314 318 320 317 318 329 341 341 338 343 345 345 349 352 354 355 353 351 350 353
310 311 315 319 322 322 321 321 325 329 330 333 332 327 321 317 321 322 322 325 327 329 329 327 328 324 324 325 325 327 324 321 325 327 325 325 323 324 326 325 325 326 323 314 313 315 309 310 322 326 325 325 326 324 326 325 320 323 328 322 313 314 315 312 312 313 311 311 312 313 318 323 327 336 340 340 342 345 346 346 347 351 355 355 352 351 348 350
312 316 319 322 324 325 326 325 328 330 330 333 329 322 319 320 324 324 325 326 327 329 327 325 326 320 317 322 325 326 326 323 325 325 323 325 325 324 325 326 326 325 323 318 316 316 308 311 324 326 323 327 326 325 328 322 318 321 320 316 318 326 322 311 310 313 311 312 313 314 315 321 329 336 339 343 345 348 352 351 348 349 354 354 352 351 349 349
317 320 322 324 324 324 328 328 330 331 331 332 327 322 323 324 328 327 327 326 325 329 327 320 321 319 314 316 321 326 325 323 324 322 320 322 323 324 326 327 326 326 326 322 320 320 313 311 323 327 322 325 326 325 328 325 323 319 315 318 327 327 324 317 312 313 313 312 314 314 313 314 318 325 336 346 345 347 352 351 349 350 352 353 352 350 351 351
318 321 324 327 324 323 330 330 330 332 331 330 328 327 327 326 327 327 328 326 324 328 326 318 319 323 318 315 318 325 325 319 321 321 319 319 320 323 327 326 327 326 326 324 321 323 320 310 318 328 324 324 328 324 321 325 327 322 319 328 327 316 315 315 312 312 313 312 313 312 313 315 314 319 329 340 346 348 349 349 351 352 352 352 353 351 350 352
321 324 328 328 322 326 333 330 330 331 330 328 327 327 326 325 327 328 328 326 325 325 325 321 323 326 325 322 321 325 325 320 321 321 318 318 319 323 327 325 325 326 325 327 323 324 325 313 312 325 328 324 325 322 315 317 323 325 323 328 327 320 316 314 315 315 313 313 314 312 313 315 319 325 332 341 347 349 348 349 352 352 352 353 353 352 350 353
323 324 326 326 325 329 333 330 329 331 330 329 327 326 326 324 324 326 326 326 325 323 325 326 326 327 328 329 326 326 326 323 324 322 319 322 320 321 327 326 324 327 325 326 325 324 325 318 310 320 327 322 318 320 317 317 320 319 317 317 319 322 321 319 318 315 314 313 313 314 312 313 323 333 339 343 347 347 350 353 352 354 353 352 353 352 352 355
322 321 325 327 330 330 331 331 330 331 330 329 328 326 327 326 324 325 326 325 324 323 323 325 328 330 330 330 327 327 328 325 325 324 321 322 321 320 325 327 325 326 326 326 326 323 322 319 313 313 317 314 316 325 326 324 324 321 318 316 318 319 318 315 315 314 313 312 311 313 311 315 328 335 338 344 348 348 352 353 353 353 352 352 353 351 354 356
323 324 325 328 330 329 330 330 331 330 329 328 328 327 327 327 326 325 325 325 323 323 324 326 330 333 334 333 332 331 327 324 324 324 323 324 323 323 325 328 327 326 326 324 326 326 325 322 315 311 314 319 324 328 325 325 327 326 323 323 323 321 315 311 311 312 312 311 313 312 311 319 336 337 341 349 351 348 351 352 352 351 352 355 353 350 352 353
324 326 326 327 328 327 327 328 330 331 329 328 328 326 326 326 326 325 324 325 324 324 326 329 330 333 333 336 336 334 330 327 324 323 326 324 325 326 326 327 325 326 327 326 325 326 326 321 314 311 318 324 326 328 327 328 326 322 324 326 325 323 320 318 317 316 313 310 312 311 311 322 339 338 343 349 347 350 351 350 351 351 351 352 351 351 353 351
322 324 324 325 325 325 325 327 329 330 329 328 327 327 326 325 325 326 325 324 325 326 328 330 331 332 333 333 335 336 333 328 325 324 326 327 326 327 327 326 327 327 325 325 327 324 319 319 315 310 312 315 317 320 320 322 323 321 323 327 327 327 327 324 321 320 315 311 312 311 310 322 340 342 342 344 344 349 349 346 349 351 349 350 351 353 353 352
322 325 324 323 324 324 324 324 327 329 331 331 331 332 331 327 324 326 326 324 326 327 328 331 332 333 333 333 333 337 337 331 330 329 326 326 328 327 326 327 327 324 326 331 334 326 319 320 318 311 309 311 311 312 313 316 319 320 323 326 328 329 326 322 317 314 312 312 313 311 311 323 341 341 339 344 346 348 348 346 346 349 349 350 353 352 353 354
322 327 327 324 322 322 323 324 325 328 331 333 335 335 333 331 326 324 327 328 329 329 330 333 335 335 334 334 335 338 340 338 337 335 329 326 328 327 327 327 324 328 344 350 341 328 324 324 321 316 313 313 313 316 321 322 317 315 319 322 325 329 328 324 315 311 313 313 311 315 319 321 330 338 338 342 345 345 348 345 344 348 350 352 356 354 352 355
323 327 328 328 327 324 322 322 323 324 330 334 336 337 334 334 334 329 326 327 330 331 333 334 337 337 336 338 338 337 339 339 337 337 336 330 329 330 328 324 324 338 355 348 332 329 324 319 321 322 318 320 322 324 327 326 318 316 319 319 322 328 327 321 314 315 319 313 309 323 330 318 323 338 339 339 345 344 345 345 346 349 350 351 355 353 353 355
327 328 327 328 329 328 324 325 326 328 333 336 338 338 335 334 337 335 329 327 329 330 334 335 335 337 338 338 336 337 338 337 336 337 340 335 334 334 332 327 326 336 343 329 324 331 325 318 322 324 320 323 327 327 328 327 324 323 322 321 323 324 322 319 317 321 323 313 311 327 330 319 323 336 337 339 345 343 343 344 347 349 349 351 355 354 354 356
327 327 326 327 328 329 328 327 328 330 333 338 340 339 337 335 336 336 332 327 330 329 333 336 337 336 337 336 336 339 339 335 334 338 341 339 336 337 335 332 328 329 329 325 326 331 324 320 326 326 320 323 326 327 327 326 324 324 324 325 326 325 323 322 321 326 326 319 319 328 327 325 331 337 338 342 340 340 344 346 348 349 349 353 356 356 356 355
324 325 326 326 327 327 327 327 328 329 332 338 341 339 337 335 334 338 339 331 331 334 335 338 340 337 337 337 338 341 340 337 337 340 339 338 338 339 338 334 331 332 330 326 326 328 323 320 328 327 318 317 324 326 326 325 323 321 321 325 326 325 325 323 324 325 324 321 325 325 322 331 343 343 346 348 343 345 353 355 357 357 356 358 356 353 354 353
321 323 324 325 327 327 326 326 327 328 330 334 336 336 336 335 335 338 342 336 332 338 337 337 339 337 337 337 338 339 339 336 337 338 336 337 337 337 337 336 334 336 336 330 327 328 325 322 327 325 314 313 321 325 322 324 323 317 317 322 324 322 323 324 325 326 323 321 321 319 318 333 349 346 345 348 344 349 355 356 361 363 365 371 365 355 353 353
320 321 322 323 327 328 325 324 325 326 327 329 331 332 333 334 335 338 341 339 334 336 335 336 339 339 339 339 339 339 336 335 336 336 334 335 334 333 336 335 334 336 336 334 329 329 329 324 323 320 312 312 321 323 321 320 315 311 315 321 325 325 325 326 326 329 329 325 322 322 327 342 350 345 344 345 344 350 355 355 360 366 370 373 371 360 352 354
Wind_Speed
30 30 31 32 33 33 34 35 36 36 35 34 34 33 31 28 26 23 22 20 18 15 13 12 12 12 13 12 11 10 12 11 11 11 15 15 11 11 11 8 8 9 8 9 11 11 11 11 11 11 9 7 6 3 3 1 1 1 3 3 5 7 7 8 7 5 6 6 6 5 3 3 6 7 6 6 6 8 8 7 7 7 7 7 5 5 8 9
30 30 31 32 33 34 34 35 36 36 35 35 35 34 32 30 27 24 22 20 18 15 12 11 11 11 11 11 10 10 12 12 14 17 22 20 15 15 14 13 13 11 9 11 13 13 11 9 8 7 6 5 5 2 2 2 3 2 4 3 5 7 7 8 8 8 7 8 7 6 6 4 5 5 4 5 6 7 8 8 7 9 10 7 6 3 4 7
29 30 31 32 33 34 35 36 37 37 36 37 37 36 34 32 28 25 22 20 17 14 11 10 9 10 10 9 9 10 12 14 14 18 22 22 21 20 17 16 16 14 13 13 13 13 11 11 8 5 6 6 4 1 2 0 2 0 3 4 6 7 8 8 8 9 10 10 7 6 6 5 5 4 3 4 5 4 4 6 6 9 11 4 4 6 2 5
29 30 31 32 33 34 35 36 37 38 37 38 38 37 36 33 29 26 22 19 16 13 10 9 7 8 8 8 8 8 10 13 10 7 10 16 20 21 19 18 15 15 15 15 15 14 12 13 10 6 6 7 4 2 1 2 3 2 2 5 7 8 9 9 9 10 9 9 7 6 5 6 6 4 3 3 3 2 0 2 4 8 14 11 7 8 8 8
28 30 31 32 33 35 35 37 38 39 39 38 39 39 38 34 30 25 21 17 15 12 9 7 6 6 6 6 5 6 8 7 0 5 4 11 15 17 18 17 15 14 14 16 16 15 13 12 11 7 6 7 4 3 1 4 3 3 5 8 8 9 9 11 12 11 8 4 7 7 5 6 6 4 3 2 1 1 2 3 6 8 13 16 12 11 9 7
29 30 31 32 33 35 36 37 38 39 40 40 40 40 39 35 30 25 20 16 14 11 7 6 4 4 5 5 3 4 7 3 6 7 6 10 14 15 16 15 14 12 13 16 16 15 12 10 10 7 7 6 4 3 2 5 5 4 6 8 10 11 11 10 11 11 10 8 9 7 6 5 5 4 3 3 3 4 6 5 7 11 11 14 14 11 9 8
29 30 31 32 33 35 36 37 38 39 41 41 41 41 39 35 29 24 18 15 12 9 6 3 3 4 4 3 3 4 8 9 4 4 4 5 12 15 15 15 13 12 14 16 15 14 11 9 10 8 8 5 3 2 5 6 6 4 6 7 8 11 12 9 8 8 8 9 9 5 3 4 3 4 4 4 4 7 10 8 8 12 11 11 11 10 10 8
29 30 31 32 33 35 36 37 38 39 41 42 43 42 39 33 27 23 17 13 10 7 4 1 1 3 3 2 5 6 10 16 9 8 5 2 8 13 15 15 14 14 16 17 15 13 10 10 10 8 9 5 1 3 6 4 3 1 2 5 6 10 11 6 6 7 6 6 6 8 4 3 4 4 5 5 4 7 10 10 10 11 10 10 10 10 10 8
29 30 31 32 33 35 36 38 38 39 41 43 43 43 38 31 25 21 15 10 7 5 1 1 1 2 1 2 6 7 8 11 8 8 4 2 6 13 17 16 16 17 16 17 16 15 11 10 9 5 8 7 1 2 3 3 2 1 1 5 7 8 8 3 5 8 6 4 5 8 6 4 4 3 4 6 5 6 9 10 11 11 8 8 9 10 10 11
29 30 31 32 33 35 36 38 39 39 41 43 44 43 36 28 23 19 13 8 4 2 1 2 2 2 2 4 7 7 2 6 8 7 6 4 6 14 19 17 18 19 15 15 16 15 12 10 9 7 7 9 2 1 2 4 3 3 4 7 8 7 6 4 4 7 4 3 5 6 6 6 0 3 2 6 5 5 8 10 12 12 9 8 9 10 10 11
29 30 31 33 33 35 36 38 39 40 42 43 45 43 33 24 21 16 11 5 1 1 2 3 3 3 4 7 8 6 3 5 7 9 10 8 10 18 21 18 18 19 16 14 15 13 13 12 8 6 7 8 5 2 1 3 1 6 7 5 6 6 5 4 2 6 3 3 6 4 3 7 5 3 1 7 6 4 6 8 11 11 10 10 10 10 9 9
29 30 32 33 33 35 36 38 39 40 42 42 45 42 29 20 18 13 8 2 1 3 4 4 5 3 6 8 11 11 2 1 5 7 11 12 12 18 20 18 16 18 16 13 14 12 14 14 9 8 7 9 9 4 3 2 1 8 5 2 1 1 2 3 1 6 3 3 7 4 1 4 5 2 3 7 7 4 4 6 8 9 10 10 10 9 8 9
30 31 32 33 33 34 36 38 39 40 42 42 45 40 24 17 16 10 6 1 3 4 4 4 5 2 6 6 13 21 12 4 4 5 10 12 11 15 17 16 15 16 16 14 14 12 12 12 11 11 9 10 9 5 1 2 1 6 4 4 3 3 5 3 3 6 4 4 7 4 1 2 1 3 5 5 5 5 4 4 6 7 8 9 9 9 9 10
31 31 33 34 34 35 36 38 39 40 41 42 45 38 19 14 13 7 4 2 4 5 5 5 5 3 6 8 13 16 13 6 5 7 10 11 11 14 16 16 14 14 15 15 16 12 8 9 12 11 9 11 9 5 4 2 3 5 5 4 4 3 4 5 6 7 6 5 6 4 1 4 2 3 5 3 3 5 3 3 5 6 7 7 8 8 8 10
31 32 33 34 35 35 36 38 38 40 41 42 45 33 15 11 9 5 2 4 4 5 6 4 6 5 6 11 13 8 11 9 9 11 12 13 14 13 15 17 13 13 14 14 14 11 7 8 10 9 8 12 11 9 5 3 5 6 5 7 6 5 4 4 8 9 7 7 7 5 1 4 3 2 3 3 3 4 2 3 3 5 7 7 7 7 8 8
32 33 33 34 36 35 36 38 38 41 41 43 44 27 11 9 6 3 1 5 5 6 6 3 8 9 6 5 4 6 11 13 13 14 13 15 15 13 15 16 12 13 13 12 12 9 7 8 8 8 10 11 10 9 4 2 2 3 2 8 10 9 5 4 9 11 9 9 8 6 1 2 2 2 3 3 4 5 2 2 4 4 6 7 6 7 8 8
33 33 34 35 36 35 36 37 38 41 41 45 40 19 7 7 2 2 1 4 4 4 5 7 7 8 9 6 2 7 11 13 15 15 14 15 15 14 15 13 11 12 11 10 11 9 8 8 8 8 8 9 8 8 4 1 2 3 5 10 13 10 5 7 9 10 11 11 9 7 3 2 1 3 4 3 4 5 2 4 6 4 5 6 6 6 7 7
34 34 34 35 36 36 36 37 39 40 42 46 32 11 8 7 2 0 1 2 2 5 8 10 9 5 7 9 10 10 11 12 15 16 15 15 16 15 14 11 9 11 9 9 11 10 8 7 7 8 8 8 8 8 5 3 5 6 6 8 9 8 4 10 10 10 12 12 11 10 5 1 1 2 4 5 4 5 4 5 4 3 5 6 5 6 7 8
34 34 35 35 36 36 36 37 39 39 43 42 21 8 11 7 4 4 7 6 5 5 5 6 9 5 5 7 12 11 10 13 13 15 15 15 16 15 14 11 10 11 10 8 9 11 9 7 8 8 8 9 10 10 8 6 10 9 5 5 7 8 3 8 12 10 9 7 9 11 6 2 2 5 6 7 6 4 5 4 3 4 4 5 6 6 6 6
33 34 35 34 36 37 35 37 37 38 43 35 14 7 9 4 3 4 7 10 10 11 11 6 12 12 11 6 7 3 9 13 11 13 15 16 15 13 12 11 11 11 10 10 10 11 9 9 9 9 10 12 13 13 11 9 11 8 5 6 8 9 7 7 13 9 4 3 1 8 7 9 9 9 9 8 7 5 5 4 4 5 3 3 5 6 6 5
33 33 33 34 36 36 36 36 36 39 37 21 8 6 7 6 6 3 3 8 13 17 19 14 12 14 15 9 4 6 8 10 11 12 15 17 14 11 11 12 12 10 11 13 11 10 10 11 11 12 14 15 15 14 11 11 10 8 6 6 7 8 6 5 8 4 3 2 3 6 6 12 11 7 8 9 8 8 6 5 5 5 3 3 2 5 5 5
32 31 33 34 35 36 36 35 37 38 25 6 4 8 9 10 11 10 10 9 12 16 19 17 16 14 14 11 4 7 7 8 12 13 15 16 14 11 11 12 12 10 12 14 11 10 11 11 14 16 16 15 16 13 12 11 9 7 6 6 5 8 8 3 5 3 4 2 2 6 1 7 13 7 9 10 8 7 6 4 5 3 2 3 1 5 6 6
31 31 33 32 35 37 35 35 37 31 14 6 8 11 13 16 16 14 10 8 12 15 15 15 16 14 14 12 5 6 10 9 12 13 16 16 13 12 11 12 13 12 13 14 12 11 10 11 15 17 16 16 15 14 14 11 7 6 6 6 5 7 9 2 1 4 5 3 4 6 2 3 12 9 8 9 7 6 5 6 5 2 1 3 1 2 6 7
31 31 31 32 36 35 34 38 32 18 9 10 15 16 16 16 14 13 10 8 11 13 15 15 14 13 13 13 9 10 11 8 11 13 18 16 13 12 12 12 13 13 12 16 18 15 14 13 15 16 16 17 16 15 15 9 5 7 8 8 7 9 13 5 4 6 5 4 8 4 3 1 7 7 5 6 6 6 7 7 6 4 5 3 3 3 4 7
32 31 31 32 34 34 37 34 19 14 18 16 16 13 11 10 9 10 8 7 8 9 14 14 11 11 14 13 12 11 10 9 11 12 18 17 14 11 10 10 10 12 15 18 18 15 16 17 15 15 15 16 15 14 13 7 4 7 10 10 9 14 17 11 8 9 8 2 8 3 2 3 3 3 1 4 7 7 8 8 7 3 2 3 6 3 5 8
32 31 31 31 33 36 32 17 12 24 26 13 7 7 7 7 8 9 7 6 6 4 9 9 8 9 13 13 11 8 9 10 11 12 18 19 17 12 10 8 7 11 14 15 13 9 12 17 18 16 14 14 15 13 10 8 6 7 10 10 9 11 14 10 9 10 7 2 3 1 3 3 3 2 3 7 8 9 8 7 7 5 0 1 6 5 4 7
32 31 32 31 32 34 21 11 20 26 16 7 9 10 9 8 9 9 6 5 6 5 8 6 5 8 10 11 12 8 7 7 10 15 16 19 17 13 12 10 8 10 11 9 9 8 11 17 18 18 16 11 11 10 7 8 9 6 9 12 7 7 12 11 11 9 7 3 4 6 7 5 2 3 7 9 9 9 9 8 8 6 4 5 5 4 5 7
31 31 32 31 31 30 19 18 21 17 13 13 14 12 10 10 10 7 5 5 2 5 6 5 4 5 7 9 14 12 8 4 10 13 15 20 18 12 12 14 11 11 12 10 8 10 13 15 17 18 15 9 8 10 9 10 11 9 13 16 8 5 9 11 9 8 8 5 1 5 8 4 1 5 7 8 8 9 9 10 10 9 7 7 7 7 7 8
31 31 31 32 32 25 14 15 16 15 18 17 14 12 10 10 9 5 5 5 3 4 3 5 5 5 9 10 13 15 12 6 7 11 16 19 17 13 11 14 14 12 14 14 11 11 11 11 14 15 12 9 10 12 12 12 10 10 13 13 9 7 8 10 9 8 6 6 7 3 4 2 3 4 6 6 6 7 8 9 10 11 10 10 9 9 8 7
32 31 30 33 31 19 11 14 20 17 15 13 13 12 10 9 6 5 6 3 4 6 5 5 7 9 12 12 12 15 15 11 7 10 14 13 15 15 11 11 14 12 12 14 14 14 13 11 12 12 10 9 12 13 13 13 13 12 10 8 7 8 9 9 7 6 6 4 8 11 5 4 1 3 5 4 5 6 6 8 9 10 12 11 9 9 9 6
33 32 30 32 30 20 13 14 16 12 10 11 13 11 9 6 4 7 5 1 1 5 8 6 9 11 13 13 11 13 15 13 9 11 12 10 13 14 11 9 10 9 9 10 12 14 17 15 9 7 9 8 8 11 12 13 14 12 8 6 6 7 7 7 3 4 6 5 7 12 11 6 1 2 3 3 6 6 8 8 10 12 12 12 10 10 9 3
33 32 31 30 30 24 17 17 16 15 11 11 12 8 6 5 6 8 5 2 2 6 7 8 10 10 13 14 11 13 14 13 11 12 11 10 10 12 12 10 7 8 10 8 9 12 14 15 10 7 9 10 8 8 8 10 11 9 7 5 6 6 5 4 1 1 4 7 9 10 8 5 2 3 2 3 3 4 10 7 8 12 12 12 11 10 9 6
34 34 32 27 26 26 24 22 20 16 11 10 9 6 5 6 7 8 8 6 2 4 2 5 10 9 11 12 11 13 14 12 12 12 11 12 11 12 16 15 12 11 8 8 9 9 10 13 14 12 9 11 11 9 6 7 8 8 7 6 6 6 5 4 4 4 5 6 9 9 5 2 2 1 1 2 5 8 11 8 7 10 12 12 11 9 10 9
35 34 30 24 22 25 25 21 16 13 10 9 7 6 8 9 8 9 11 8 3 4 1 3 8 9 11 10 10 12 12 12 14 12 11 12 10 10 14 17 18 13 8 9 9 9 10 10 13 15 10 10 14 13 11 10 8 8 9 8 8 7 6 5 4 6 6 5 7 6 4 2 2 2 1 5 8 8 10 10 9 10 9 10 10 9 9 9
35 30 25 21 20 21 20 19 16 12 8 7 6 7 9 8 8 9 8 4 1 4 6 4 5 8 10 9 11 13 11 11 13 13 10 11 10 10 11 14 18 16 10 9 7 8 11 9 10 17 15 12 14 14 14 13 10 8 8 8 8 8 6 5 5 8 8 6 6 4 0 3 4 5 3 7 10 9 11 10 10 11 10 9 9 9 9 9
32 26 20 17 18 16 15 16 15 12 9 6 6 8 9 8 9 8 3 4 5 3 5 5 6 8 8 8 10 13 14 11 12 12 10 12 12 13 13 12 16 18 13 9 6 7 9 8 10 16 17 16 14 13 14 13 9 7 7 8 9 8 6 6 7 7 7 5 3 3 4 3 6 5 5 9 10 9 10 10 8 9 10 9 8 8 8 9
27 22 17 16 19 15 14 14 12 12 9 6 8 9 9 10 12 11 4 2 5 6 5 4 6 7 7 7 7 11 14 11 11 10 9 11 12 13 15 13 15 20 19 13 8 7 8 7 10 15 16 16 14 12 14 15 12 9 6 4 6 8 6 5 6 5 5 5 3 5 5 2 4 2 4 11 11 8 8 10 9 8 9 8 7 6 7 6
22 17 15 18 20 13 14 13 11 11 7 7 10 11 11 12 14 15 7 2 5 6 6 7 5 6 8 8 7 11 13 9 10 10 8 9 9 13 16 13 14 19 21 18 10 7 8 7 8 15 15 13 13 11 11 13 16 15 8 5 2 5 4 3 3 4 5 5 3 4 4 4 1 4 1 9 10 9 8 10 12 11 9 8 5 4 6 6
18 12 10 12 15 13 14 13 10 8 7 8 9 9 11 13 15 18 12 5 6 8 7 9 7 6 8 7 7 10 12 10 9 8 8 7 8 13 15 12 13 17 20 19 12 8 7 7 8 10 14 11 10 9 8 9 13 15 13 7 3 3 4 2 3 3 5 5 4 5 4 2 0 3 6 11 12 11 10 10 12 13 10 8 7 6 7 6
12 8 6 6 13 14 13 10 9 7 7 9 9 8 10 13 14 16 13 6 6 7 8 10 9 7 7 8 8 9 10 12 12 8 7 8 7 11 14 12 12 15 18 18 15 10 7 6 8 6 12 10 7 8 9 9 10 11 11 9 7 5 2 2 4 5 4 4 4 5 4 1 4 4 8 13 14 12 12 12 10 11 11 9 9 9 7 7
8 7 4 9 14 13 11 8 7 7 8 9 11 12 12 12 13 13 13 10 9 9 10 12 11 8 7 7 7 9 8 9 12 10 7 9 8 6 9 12 12 12 14 15 13 10 7 6 8 7 8 9 8 10 13 13 11 10 10 10 9 6 3 3 6 5 3 5 6 6 4 4 6 5 7 12 13 12 14 13 8 8 11 10 8 9 9 9
7 5 3 10 12 11 9 7 7 7 8 9 10 13 13 11 13 12 8 8 10 10 11 12 11 10 8 5 6 11 10 8 11 11 7 8 9 7 8 11 12 11 9 10 11 11 9 6 7 8 7 9 10 12 14 15 15 12 10 11 10 7 6 6 7 4 3 7 7 6 3 3 5 4 8 14 16 15 14 14 11 9 11 11 9 10 11 11
6 7 5 4 10 11 8 8 8 8 8 10 13 16 16 12 9 10 10 9 9 9 9 10 10 10 8 5 6 11 9 6 11 13 9 9 10 9 11 12 12 12 8 7 9 11 9 6 7 8 7 7 10 12 12 13 13 13 10 9 9 9 9 9 9 5 4 8 7 3 2 3 4 4 10 16 16 14 12 13 14 11 9 11 12 11 12 11
6 8 8 10 12 11 8 7 8 9 10 12 14 15 18 13 8 10 13 12 10 9 10 11 10 10 9 6 7 8 5 4 9 13 10 8 8 9 9 11 9 10 9 6 7 8 8 6 7 7 7 7 8 9 9 11 10 9 9 10 12 13 13 13 10 7 6 7 5 4 3 4 6 3 8 14 14 13 10 10 13 13 11 11 12 11 11 10
7 6 6 10 13 11 9 8 9 9 9 9 11 13 17 13 10 12 14 12 12 11 10 9 8 7 7 6 7 6 4 6 7 11 10 6 7 12 8 10 8 10 9 8 8 7 7 7 7 7 7 7 6 5 5 8 9 8 11 14 13 13 14 12 8 7 7 4 3 5 2 5 8 7 8 13 15 15 13 12 12 13 12 12 12 11 10 9
5 5 4 6 9 8 8 9 10 11 9 7 7 11 16 13 10 13 14 12 11 11 9 8 6 5 7 9 7 3 5 10 10 9 11 9 8 11 8 11 9 7 3 5 8 6 5 8 9 10 10 8 6 8 8 9 10 10 12 14 12 10 12 11 8 7 5 3 4 6 6 7 8 8 9 12 13 13 12 11 12 13 12 12 12 10 10 8
4 5 4 2 4 7 9 10 10 11 8 5 3 6 12 16 11 10 13 11 10 10 8 8 7 6 6 7 5 1 2 9 9 11 11 7 5 8 3 8 8 2 6 2 9 6 5 8 11 14 16 15 13 15 12 8 10 10 12 14 13 13 13 11 10 9 6 5 5 1 4 5 4 7 8 10 11 10 8 6 10 13 12 11 11 10 10 9
4 6 4 5 4 6 6 5 6 7 4 2 4 6 8 14 17 11 10 10 10 9 6 7 9 9 5 2 3 2 4 5 4 9 11 8 10 11 4 6 10 4 1 6 9 5 4 7 10 13 15 16 18 20 17 9 9 11 13 14 15 16 16 15 13 12 10 8 5 1 3 5 5 10 11 10 10 9 7 7 11 13 11 10 11 10 10 8
5 5 6 8 7 8 8 8 8 8 2 5 3 8 9 11 17 17 10 7 9 9 7 7 7 5 5 2 3 0 4 4 1 4 9 9 9 10 6 5 9 7 7 10 8 5 5 5 8 12 12 15 18 19 19 16 12 13 15 16 15 16 18 17 16 13 11 11 10 9 8 2 4 9 11 11 8 8 7 7 10 12 12 12 10 9 8 7
5 5 7 9 8 8 9 7 7 8 3 6 4 5 8 10 15 17 13 8 7 5 1 3 5 3 1 3 2 3 2 4 3 2 6 8 8 8 6 3 3 6 7 10 8 7 6 4 7 10 10 12 16 17 18 18 17 17 15 13 13 14 15 18 16 13 13 13 14 16 9 6 12 12 14 12 8 10 13 14 12 10 9 9 8 9 9 10
9 9 8 8 6 7 8 6 5 6 5 4 5 5 7 10 13 14 13 10 5 1 4 5 6 6 5 4 2 4 2 6 5 2 4 5 4 7 8 4 5 7 7 9 8 7 7 6 7 8 8 8 11 15 18 18 19 20 16 9 9 14 14 11 11 14 15 15 16 13 5 6 10 11 13 11 8 12 16 16 12 8 8 7 6 11 13 12
12 10 8 6 6 6 7 6 6 7 6 4 5 6 6 8 8 8 10 10 4 5 6 3 4 3 5 6 3 4 4 7 7 4 6 6 5 8 11 13 12 10 7 7 8 7 7 6 6 7 7 7 11 14 15 16 16 14 13 12 12 13 12 12 14 14 10 8 7 3 5 8 9 11 12 11 10 13 14 13 10 8 9 9 8 9 11 11
Wind_Direction
12 12 10 8 6 4 4 3 3 2 1 359 358 355 352 348 343 340 339 335 329 319 310 307 305 306 311 326 337 329 323 316 297 260 237 246 249 245 250 243 249 259 242 222 229 233 231 233 240 253 260 265 257 250 304 298 116 306 281 323 18 36 25 33 62 90 93 99 115 140 153 134 135 126 135 148 126 121 123 110 110 103 84 84 89 151 180 173
9 10 9 8 6 4 3 1 360 360 359 358 356 354 352 347 342 340 338 334 330 320 310 307 306 307 315 331 334 329 330 307 279 260 247 246 245 244 243 242 249 253 227 215 228 232 237 244 236 243 255 269 262 253 341 354 53 330 284 348 29 44 42 39 77 109 99 95 115 139 160 160 127 130 151 151 130 127 129 118 121 115 92 77 77 111 197 176
7 6 6 5 4 3 2 1 358 358 358 357 355 352 350 347 343 338 336 333 328 321 311 306 305 307 317 331 333 337 330 302 274 261 255 243 234 237 236 235 242 246 230 221 232 234 247 267 266 260 269 278 270 334 30 316 42 7 264 3 35 50 56 50 63 87 98 108 124 135 150 141 119 132 136 123 119 123 132 121 135 130 117 125 114 109 171 212
4 3 3 3 2 1 1 360 358 356 356 355 354 351 348 346 341 336 334 329 325 319 308 306 305 305 320 331 331 342 320 288 276 268 247 224 223 228 229 230 233 241 236 232 244 246 253 268 281 283 279 285 270 284 22 66 23 336 325 18 33 47 53 47 53 61 82 119 132 119 115 109 115 123 109 116 109 96 193 155 158 138 136 152 158 154 176 198
1 1 1 0 360 359 358 358 358 356 354 353 353 351 347 344 340 335 332 327 322 315 306 307 305 307 319 322 327 336 308 275 6 60 138 184 205 215 221 223 223 235 233 235 249 252 255 265 278 277 269 281 283 282 51 66 36 326 359 29 32 47 52 38 42 37 30 75 92 88 90 96 114 111 111 137 73 107 174 206 181 150 144 150 160 175 174 181
358 358 358 358 358 356 356 356 356 355 353 351 351 350 346 342 338 333 330 325 317 309 307 307 305 308 306 320 344 306 271 258 74 78 123 165 190 205 212 211 214 225 224 234 248 250 253 259 266 267 259 272 300 321 55 51 41 2 358 26 33 49 61 44 42 32 18 27 42 67 104 108 115 110 120 121 96 147 167 207 182 157 154 147 150 165 167 183
355 355 355 355 356 354 353 353 354 354 352 350 349 348 345 341 337 331 327 321 313 306 308 306 299 294 296 324 311 262 242 270 309 128 133 157 192 205 208 205 206 211 216 229 241 246 250 256 262 269 270 271 275 308 69 48 25 15 350 20 45 58 63 55 57 49 35 36 17 8 111 118 112 120 128 120 114 136 156 188 169 145 147 143 147 159 161 176
354 353 353 353 354 353 351 351 352 352 351 349 348 347 344 339 335 329 324 318 307 301 304 281 275 280 291 302 264 248 239 256 246 159 148 170 197 202 200 199 200 203 215 224 232 244 249 253 256 264 286 307 0 8 66 62 336 25 8 22 52 64 65 68 83 74 52 48 6 344 8 65 75 133 141 129 136 128 142 160 142 132 141 147 157 163 157 167
352 351 351 351 351 351 350 349 351 351 350 348 347 347 342 338 333 326 320 313 303 297 291 165 242 245 235 271 261 264 249 229 188 151 155 181 201 194 189 190 194 200 213 223 233 246 247 251 264 295 311 307 351 27 71 73 358 87 91 42 48 54 73 104 97 79 57 57 23 0 355 14 62 168 156 132 158 144 136 136 131 138 152 160 161 162 165 172
350 349 349 349 349 350 348 347 348 349 348 346 346 345 340 337 333 326 318 308 301 280 172 154 195 182 215 247 244 249 175 142 150 160 171 176 186 181 186 192 191 198 212 221 230 243 248 262 300 333 303 283 272 151 99 66 31 51 52 58 52 34 52 56 74 87 85 96 58 26 346 331 302 217 175 138 170 165 145 137 140 149 158 170 164 159 172 177
348 347 346 346 346 347 346 345 346 347 346 345 345 344 339 337 334 331 325 310 278 209 143 154 179 177 251 259 242 228 115 139 171 158 160 167 171 177 191 197 191 200 213 222 229 241 253 266 297 305 292 311 322 258 99 62 30 62 51 49 58 34 22 1 64 105 111 116 84 73 335 305 256 231 117 142 159 182 166 141 140 149 154 165 165 162 172 176
345 344 344 343 344 345 344 344 344 345 344 343 344 343 338 336 337 337 336 338 165 162 136 158 166 170 275 266 241 239 271 261 206 162 162 168 176 184 195 200 196 206 216 227 231 233 250 268 288 280 294 316 308 308 61 48 45 98 94 271 86 71 286 307 83 110 116 108 104 121 200 273 249 208 129 137 141 174 186 143 142 150 151 158 162 167 174 173
343 342 341 341 341 343 342 342 343 343 342 342 343 342 335 333 340 343 347 38 135 139 139 154 149 207 276 266 242 237 238 254 230 198 179 175 185 190 197 208 206 212 224 237 243 238 240 260 283 284 291 291 299 352 90 245 250 122 124 248 235 249 245 221 170 142 139 109 125 165 94 103 203 147 129 122 147 180 184 164 161 151 147 154 160 168 173 172
340 339 339 339 339 340 340 340 341 342 340 340 341 339 331 331 341 347 359 107 126 127 144 150 149 227 256 256 265 239 217 232 231 210 198 188 191 189 196 210 212 216 225 239 254 266 258 250 266 275 283 277 288 312 242 214 25 29 5 282 237 261 250 205 191 165 153 147 162 200 26 74 71 99 125 128 197 198 194 197 171 149 150 154 158 168 171 171
337 337 337 337 337 338 338 338 340 341 339 338 339 337 325 329 345 353 47 124 124 138 150 157 183 227 265 257 267 232 199 233 238 218 207 195 194 190 194 204 212 220 224 234 250 270 276 259 261 263 264 259 260 269 254 102 60 33 352 284 258 237 225 194 190 176 162 163 181 220 327 80 83 92 149 162 229 233 220 232 188 159 158 154 159 165 164 169
335 335 335 334 335 336 337 337 338 339 337 336 337 334 317 327 353 13 108 139 139 151 159 197 201 214 273 282 237 194 206 227 230 219 205 197 200 195 192 198 209 219 221 229 242 258 259 251 260 263 269 266 254 253 248 87 58 101 185 264 262 234 193 169 196 185 165 154 175 219 286 37 97 151 186 170 222 241 219 246 230 180 154 156 166 164 161 167
332 333 333 333 332 333 335 335 337 337 335 335 335 330 315 322 347 86 123 149 152 178 214 265 253 220 253 287 253 213 214 215 216 211 200 197 204 197 187 193 206 211 213 221 232 246 244 238 251 255 256 260 259 258 242 117 258 204 201 244 258 250 189 163 185 180 173 167 176 199 221 328 58 151 188 185 225 246 221 236 236 192 157 166 174 167 164 170
331 331 331 331 330 331 334 334 335 336 334 332 332 328 323 314 249 135 244 166 165 233 246 264 274 257 248 250 246 236 211 204 206 199 193 193 204 200 184 192 204 198 205 220 223 229 234 233 245 255 246 240 245 250 244 206 232 240 226 238 269 279 206 152 157 174 182 185 181 185 203 301 34 201 191 173 215 253 238 236 250 206 170 168 169 164 169 178
330 330 330 329 328 330 332 333 333 335 333 331 331 323 315 296 243 252 236 218 190 230 251 205 206 257 309 226 226 241 200 187 194 189 187 189 199 199 185 195 203 196 207 214 210 214 227 237 235 246 250 243 238 236 241 218 221 250 275 276 296 295 275 127 142 165 176 202 191 175 192 189 192 228 196 173 198 238 255 250 270 245 188 173 175 167 176 179
331 330 329 329 328 329 330 331 331 334 332 329 332 319 298 282 260 226 210 220 219 246 275 243 205 241 287 246 204 212 160 169 190 187 185 187 194 195 185 195 201 199 214 216 211 207 218 241 236 237 242 246 250 246 249 240 232 264 303 296 292 296 318 101 131 145 139 293 212 141 165 175 192 212 182 180 191 195 245 249 257 261 227 212 184 153 161 160
331 330 330 329 328 327 329 329 329 331 331 325 325 299 287 338 350 343 312 255 237 242 256 261 246 246 270 272 165 139 152 174 202 194 184 186 191 193 182 194 204 200 213 221 225 212 210 236 239 240 245 246 255 259 261 263 264 276 280 283 290 293 305 84 90 67 97 13 49 119 160 163 173 208 180 176 184 188 218 228 247 257 237 245 172 121 133 136
332 333 331 330 328 328 328 327 326 328 328 308 257 269 280 328 342 330 317 290 270 259 249 248 252 252 258 262 175 168 206 193 202 200 181 182 192 196 180 190 210 206 206 216 228 224 215 231 239 242 250 250 255 264 264 264 271 274 274 282 285 294 300 46 45 358 144 158 132 132 149 128 134 165 184 177 178 195 210 209 242 272 299 287 188 130 135 135
333 333 332 332 329 328 328 326 325 323 310 242 256 269 280 306 320 314 297 282 285 273 253 235 234 240 238 237 184 189 234 207 201 200 177 181 199 204 192 192 213 216 207 210 219 231 226 222 230 237 248 253 254 256 254 253 264 271 274 272 267 289 287 269 16 263 194 188 140 135 273 98 118 138 175 178 174 187 196 204 219 205 246 268 312 130 145 147
332 333 333 333 329 328 329 324 322 315 286 260 268 275 285 299 309 306 294 279 277 266 254 234 221 227 227 228 200 197 234 221 208 196 173 185 204 206 209 202 211 220 214 214 216 229 243 234 224 222 233 250 257 255 253 250 253 259 260 267 283 281 270 287 7 281 256 117 118 142 272 95 119 133 161 181 177 187 194 203 207 185 203 177 54 329 169 145
331 332 332 333 331 329 328 323 321 331 320 289 270 282 299 305 311 308 301 281 268 249 238 226 212 215 211 217 208 199 228 228 225 201 170 190 209 202 214 209 211 223 217 219 221 225 241 247 241 225 218 231 246 255 264 274 276 263 252 240 253 273 281 318 343 287 286 117 142 179 336 52 89 106 171 204 188 196 196 200 204 192 259 106 100 249 196 136
330 331 331 333 332 330 331 324 324 330 320 296 289 326 325 319 327 314 295 273 267 205 185 190 183 187 192 204 198 194 228 224 230 214 173 186 215 214 219 211 206 227 221 219 229 230 233 243 252 250 234 224 232 240 244 256 257 249 256 245 231 261 282 296 292 283 300 321 150 90 50 67 21 359 246 217 200 203 189 196 208 172 230 172 146 196 190 140
329 330 330 329 329 333 334 308 314 319 307 317 350 332 316 322 325 308 281 260 252 169 145 154 163 169 184 193 172 178 236 194 201 223 183 177 208 223 227 220 202 221 231 223 224 230 228 232 240 248 251 239 238 247 230 236 255 262 276 272 252 271 285 286 293 295 304 336 91 92 93 100 50 286 235 203 196 207 186 189 208 178 180 212 179 173 194 172
327 328 328 326 325 326 311 287 302 301 284 315 331 312 310 312 302 291 272 270 221 150 146 141 126 158 191 186 171 196 250 174 179 213 185 174 197 217 224 231 226 214 223 233 230 225 226 230 234 239 248 251 246 256 245 228 236 246 261 267 274 311 295 292 299 288 291 307 237 110 91 88 234 238 224 202 201 209 192 190 200 192 190 202 190 186 212 198
325 326 326 323 321 321 305 275 276 282 288 304 314 309 306 295 287 264 256 270 168 156 160 144 138 175 198 186 183 210 236 220 194 192 174 176 197 218 229 234 242 235 222 230 242 238 226 224 235 239 240 246 247 252 257 251 245 248 258 273 302 320 291 280 275 279 311 317 298 324 89 154 228 192 192 207 224 219 197 193 196 192 191 198 194 187 210 208
324 322 324 324 320 324 328 275 266 290 301 291 301 307 293 280 272 244 243 243 178 167 135 145 176 183 192 191 193 210 220 226 221 178 168 177 196 217 239 235 241 252 234 226 239 253 256 237 227 237 239 233 239 242 244 250 259 267 270 273 280 271 263 264 270 304 322 297 296 304 273 227 217 167 177 196 234 224 184 177 186 188 189 192 195 190 199 211
322 317 319 320 310 309 315 275 269 313 313 283 297 296 274 260 240 249 242 182 224 162 140 171 187 176 190 200 197 200 211 227 215 171 169 184 194 205 226 226 225 244 244 230 227 239 255 254 230 240 269 272 260 247 235 236 246 262 279 274 264 258 246 246 271 333 304 280 297 297 284 280 291 135 147 203 242 208 162 170 178 182 189 186 192 193 184 192
319 315 313 309 301 292 275 261 283 316 310 293 297 278 257 239 226 247 239 203 209 175 182 199 181 177 194 204 207 193 201 222 205 178 183 196 199 200 211 217 200 211 232 232 220 220 236 248 240 230 247 256 266 262 245 244 244 248 269 274 269 274 259 248 312 345 260 273 284 278 283 312 24 61 108 205 273 109 135 171 185 178 185 184 189 188 170 172
318 314 308 302 296 282 267 269 287 295 289 286 281 257 248 246 235 235 235 238 173 134 216 200 170 184 194 199 213 192 194 217 201 189 197 200 205 202 206 219 214 209 222 224 222 220 221 230 234 236 225 212 230 248 239 237 231 223 236 249 250 265 274 270 276 262 244 258 268 257 259 330 60 20 344 91 49 71 117 149 181 180 184 183 185 188 178 172
316 312 308 302 291 277 269 271 271 270 273 267 255 238 235 243 250 247 242 241 180 130 235 208 168 184 193 207 217 187 193 223 206 194 200 201 210 207 204 216 221 221 225 230 231 221 224 224 214 222 220 193 208 226 238 248 244 225 221 230 242 248 263 274 271 279 298 308 284 254 201 196 155 189 273 77 73 65 91 123 152 166 177 177 177 189 188 162
316 314 310 298 283 273 264 253 243 245 252 239 238 238 232 235 244 247 254 284 314 180 202 200 190 199 190 209 223 191 193 227 206 195 208 209 212 214 208 207 215 223 224 226 238 224 229 240 212 206 208 203 205 209 226 247 255 242 221 214 236 249 257 269 261 263 280 297 308 329 135 171 134 147 156 102 96 82 81 104 129 141 158 172 179 190 191 164
319 317 307 283 269 258 239 229 223 222 227 229 236 233 232 242 248 252 280 350 338 272 215 188 205 228 196 193 225 199 193 218 204 192 210 215 216 221 218 205 202 214 224 223 233 232 228 241 227 206 198 205 210 201 206 225 241 249 237 217 219 240 261 274 277 274 277 288 320 321 277 172 124 138 139 105 101 99 98 111 127 138 149 166 190 193 189 176
319 314 302 276 267 246 205 200 202 204 215 230 235 239 245 247 254 266 280 0 330 313 292 242 198 224 214 194 219 199 189 205 200 196 212 208 213 219 217 216 202 203 219 231 233 239 245 254 229 205 196 198 203 203 203 212 230 248 266 262 213 213 237 270 298 311 288 281 260 246 272 65 98 203 157 119 113 112 116 126 134 138 145 164 197 199 186 175
309 300 293 270 260 229 180 181 192 199 212 233 239 250 260 257 261 271 282 329 294 271 261 258 209 206 227 215 211 199 189 196 196 202 220 207 204 210 210 219 210 198 210 223 231 243 251 272 242 204 192 185 187 205 210 206 223 237 257 305 266 221 240 242 265 300 288 281 285 284 327 29 12 286 109 120 125 131 140 142 136 138 154 165 171 205 200 161
292 281 287 249 223 190 167 178 196 209 222 232 237 241 252 261 264 275 294 324 277 256 252 261 242 218 241 244 231 209 195 205 212 204 214 211 189 195 203 211 209 198 201 211 225 247 250 272 262 197 172 173 182 200 219 205 208 228 247 260 239 235 272 252 215 245 278 291 303 305 320 4 64 16 66 109 134 148 149 144 138 142 160 159 149 196 206 148
289 276 282 184 168 163 164 183 206 221 226 232 243 243 245 253 249 253 266 270 261 261 252 255 251 238 250 250 239 227 205 210 225 213 203 212 191 185 196 208 213 200 195 203 216 232 232 244 263 205 162 181 200 188 213 226 202 205 232 244 227 211 233 298 260 230 233 255 261 265 272 64 75 56 77 108 132 144 134 132 137 144 156 163 168 184 171 138
297 286 252 147 146 155 169 198 217 221 230 234 244 247 248 259 260 246 235 229 240 250 248 259 269 264 259 253 247 243 219 207 227 228 205 205 206 203 201 208 218 203 189 198 210 221 224 225 251 238 178 194 221 200 206 231 231 204 201 222 234 228 208 242 250 239 257 275 271 276 288 70 70 36 48 83 106 116 118 124 135 154 160 163 178 176 156 163
272 268 205 153 160 174 192 222 225 221 235 237 242 251 248 252 268 274 260 234 231 238 248 260 266 267 271 288 288 263 238 212 222 229 228 216 208 206 197 194 210 214 197 197 206 214 226 240 253 251 219 205 211 207 203 218 239 238 213 207 219 224 219 239 250 234 261 278 275 282 290 94 90 56 67 90 107 117 121 132 150 170 164 159 177 181 167 173
257 282 301 214 193 197 220 238 228 227 238 242 245 250 246 233 239 268 273 259 244 233 237 248 248 249 250 245 270 275 272 248 223 219 226 225 214 209 192 182 202 218 211 201 200 203 213 239 258 261 265 238 204 198 199 204 227 244 232 207 208 218 216 229 257 260 235 253 265 279 275 121 107 89 101 112 120 125 132 147 158 167 164 164 178 181 173 176
295 290 293 269 229 212 229 239 234 234 231 240 250 256 255 242 223 245 247 241 247 237 228 239 241 241 248 249 257 268 295 290 238 233 230 210 221 238 198 170 193 216 212 199 183 186 196 214 241 250 267 258 211 187 191 197 209 234 238 217 204 217 226 225 239 257 245 252 285 310 324 100 123 140 118 120 122 127 148 164 158 162 170 171 174 177 176 179
303 273 254 249 227 213 231 240 246 250 244 258 278 286 278 256 226 249 255 242 243 242 234 238 244 253 260 260 265 274 327 323 274 256 252 215 230 253 208 156 190 214 209 201 186 186 194 195 215 232 244 244 215 198 204 195 195 214 235 236 213 206 229 240 241 246 247 268 317 288 288 108 143 165 128 123 130 140 163 175 163 163 167 163 165 174 179 183
304 272 255 230 208 207 233 246 255 261 267 290 304 299 289 271 227 229 250 259 255 249 244 239 243 267 253 238 253 331 341 303 299 289 257 220 219 242 191 155 199 217 166 190 204 211 211 200 205 218 239 255 244 245 238 196 193 206 215 236 242 218 223 239 254 264 258 264 268 233 195 161 165 161 133 130 133 142 167 181 169 160 156 153 158 166 174 183
286 283 302 316 232 222 220 228 245 257 263 269 281 294 294 296 287 227 214 237 259 253 243 239 235 243 257 259 257 258 277 273 303 328 295 261 296 299 188 160 207 214 58 200 222 229 229 215 209 212 231 251 258 263 257 200 193 217 214 220 237 241 239 235 233 247 256 254 271 253 156 172 148 120 128 134 130 137 160 157 140 146 152 149 148 159 173 179
282 284 327 9 311 256 242 257 278 289 317 15 319 311 301 302 304 277 211 210 243 247 234 241 234 211 204 302 280 272 319 298 312 338 324 327 341 329 312 208 219 205 93 235 230 242 252 227 218 216 224 237 250 265 272 247 207 220 228 222 217 223 237 246 243 240 245 256 278 55 176 219 170 141 139 128 126 138 150 139 133 140 143 132 137 162 171 168
318 303 336 359 330 287 293 314 309 298 350 85 15 311 302 299 296 284 260 222 229 232 224 243 247 200 173 210 233 238 3 337 277 340 337 348 353 333 316 248 231 222 222 228 224 236 258 248 231 230 227 227 235 251 264 264 250 240 238 232 225 218 215 227 245 247 245 257 262 246 235 230 108 124 110 94 108 118 111 117 121 121 126 128 137 159 167 173
346 324 335 337 319 298 292 295 295 282 235 135 145 264 275 285 291 286 277 255 236 233 275 327 320 321 236 220 209 127 68 303 299 358 339 352 1 329 309 275 286 301 263 235 219 205 214 238 246 247 246 230 224 232 245 256 265 266 256 234 238 251 232 215 219 228 238 246 246 248 250 74 73 77 76 79 100 100 84 81 80 86 103 116 137 161 176 188
348 324 331 320 300 307 300 286 290 282 250 189 195 232 252 263 282 292 286 276 270 100 70 26 351 321 279 246 207 129 150 284 301 337 318 339 355 300 296 312 330 322 286 248 227 197 196 230 252 254 259 248 231 227 226 232 249 263 269 250 235 257 264 249 226 220 225 227 227 236 244 90 88 87 86 87 96 96 92 91 90 95 106 114 158 180 185 189
350 330 333 311 281 294 295 282 281 268 251 242 240 254 275 272 277 296 294 285 275 131 124 87 45 3 272 256 230 148 187 267 288 302 303 315 314 293 300 312 304 285 269 254 237 213 204 228 245 242 245 251 254 248 230 220 229 243 252 248 236 237 251 268 270 259 245 240 238 212 119 109 103 96 94 94 94 93 98 110 118 131 147 158 175 184 185 187